New Bedford, MA

11:27 AM EDT on September 26, 2016 (GMT -0400)
New Bedford Regional

Weather History for KEWB - January, 2014

Change the Weather History Date:

Sunday, January 12, 2014

  Actual Average Record
Temperature  
Mean Temperature 44 °F -  
Max Temperature 51 °F 34 °F 63 °F (1975)
Min Temperature 36 °F 19 °F -2 °F (1981)
Degree Days  
Heating Degree Days 21    
Moisture  
Dew Point 34 °F    
Average Humidity 68    
Maximum Humidity 97    
Minimum Humidity 46    
Precipitation  
Precipitation 0.17 in - - ()
Sea Level Pressure  
Sea Level Pressure 29.61 in    
Wind  
Wind Speed 13 mph (West)    
Max Wind Speed 24 mph    
Max Gust Speed 34 mph    
Visibility 10 miles    
Events Rain    
Averages and records for this station are not official NWS values.
T = Trace of Precipitation, MM = Missing Value Source: NWS Daily Summary

Daily Weather History Graph

Daily Weather History Graph

Search for Another Location

Airport or City:

Trip Planner

Search our weather history database for the weather conditions in past years. The results will help you decide how hot, cold, wet, or windy it might be!

Date:

Astronomy

Jan. 12, 2014 Rise Set
Actual Time 7:09 AM EST 4:35 PM EST
Civil Twilight 6:38 AM EST 5:05 PM EST
Nautical Twilight 6:04 AM EST 5:40 PM EST
Astronomical Twilight 5:30 AM EST 6:13 PM EST
Moon 2:00 PM EST (1/12) 4:05 AM EST (1/12)
Length of Visible Light 10h 27m
Length of Day
9h 25m
Waxing Gibbous, 89% of the Moon is Illuminated
Jan 12
Waxing Gibbous
Jan 15
Full
Jan 24
Last Quarter
Jan 30
New
Feb 6
First Quarter

Hourly Weather History & Observations

Time (EST) Temp. Windchill Dew Point Humidity Pressure Visibility Wind Dir Wind Speed Gust Speed Precip Events Conditions
12:53 AM 50.0 °F - 48.9 °F 96% 29.35 in 10.0 mi SW 8.1 mph - 0.00 in Rain Light Rain
1:09 AM 51.1 °F - 48.9 °F 92% 29.37 in 10.0 mi SW 13.8 mph 21.9 mph 0.01 in Rain Light Rain
1:42 AM 51.1 °F - 50.0 °F 96% 29.37 in 6.0 mi SW 18.4 mph 26.5 mph 0.04 in Rain Light Rain
1:53 AM 50.0 °F - 48.9 °F 96% 29.38 in 4.0 mi WSW 19.6 mph 29.9 mph 0.08 in Rain Light Rain
2:53 AM 48.9 °F - 46.9 °F 93% 29.37 in 10.0 mi SW 15.0 mph - 0.09 in Rain Light Rain
3:24 AM 48.9 °F - 46.9 °F 93% 29.37 in 10.0 mi SW 12.7 mph 19.6 mph 0.00 in   Overcast
3:53 AM 48.9 °F - 48.0 °F 97% 29.37 in 10.0 mi WSW 9.2 mph - 0.00 in   Overcast
4:53 AM 48.0 °F - 44.1 °F 86% 29.39 in 10.0 mi WNW 6.9 mph - N/A   Overcast
5:23 AM 46.0 °F 43.1 °F 43.0 °F 89% 29.40 in 10.0 mi WNW 5.8 mph - N/A   Mostly Cloudy
5:53 AM 45.0 °F 40.1 °F 41.0 °F 86% 29.41 in 10.0 mi WNW 9.2 mph - N/A   Partly Cloudy
6:53 AM 43.0 °F 37.7 °F 36.0 °F 76% 29.44 in 10.0 mi WNW 9.2 mph - N/A   Clear
7:53 AM 44.1 °F 38.1 °F 34.0 °F 68% 29.49 in 10.0 mi WNW 11.5 mph - N/A   Clear
8:53 AM 43.0 °F 37.2 °F 30.9 °F 62% 29.53 in 10.0 mi WNW 10.4 mph - N/A   Clear
9:53 AM 44.1 °F 36.8 °F 30.0 °F 58% 29.58 in 10.0 mi WNW 16.1 mph 23.0 mph N/A   Scattered Clouds
10:53 AM 44.1 °F 35.9 °F 28.9 °F 55% 29.60 in 10.0 mi WNW 19.6 mph 26.5 mph N/A   Overcast
11:53 AM 45.0 °F 36.9 °F 28.0 °F 52% 29.60 in 10.0 mi WNW 20.7 mph 29.9 mph N/A   Scattered Clouds
12:53 PM 48.0 °F - 28.0 °F 46% 29.61 in 10.0 mi WNW 19.6 mph 32.2 mph N/A   Scattered Clouds
1:53 PM 46.9 °F - 27.0 °F 46% 29.65 in 10.0 mi WNW 24.2 mph 34.5 mph N/A   Overcast
2:53 PM 46.0 °F 39.3 °F 26.1 °F 46% 29.69 in 10.0 mi West 16.1 mph 28.8 mph N/A   Mostly Cloudy
3:53 PM 44.1 °F 37.7 °F 25.0 °F 47% 29.74 in 10.0 mi WNW 12.7 mph 21.9 mph N/A   Partly Cloudy
4:53 PM 41.0 °F 32.5 °F 25.0 °F 53% 29.80 in 10.0 mi West 17.3 mph 26.5 mph N/A   Partly Cloudy
5:53 PM 41.0 °F 33.9 °F 24.1 °F 51% 29.85 in 10.0 mi West 12.7 mph 23.0 mph N/A   Overcast
6:53 PM 39.9 °F 33.4 °F 23.0 °F 51% 29.88 in 10.0 mi WNW 10.4 mph 24.2 mph N/A   Clear
7:53 PM 37.9 °F 32.1 °F 23.0 °F 55% 29.92 in 10.0 mi West 8.1 mph - N/A   Partly Cloudy
8:53 PM 37.0 °F 31.0 °F 23.0 °F 57% 29.94 in 10.0 mi West 8.1 mph - N/A   Clear
9:53 PM 37.0 °F 30.4 °F 23.0 °F 57% 29.96 in 10.0 mi WNW 9.2 mph - N/A   Clear
10:53 PM 37.0 °F 28.9 °F 21.9 °F 54% 29.98 in 10.0 mi WNW 12.7 mph - N/A   Clear
11:53 PM 36.0 °F 29.6 °F 21.9 °F 57% 29.99 in 10.0 mi SW 8.1 mph - N/A   Clear